This is the latest recevied weather packets stored in our database for station/object N4NVD-13. If no packets are shown the sender has not sent any weather packets the latest 10 day(s).
| Time | Temp. | Humidity | Pressure | Rain* | Wind** | Luminosity | Snow |
|---|---|---|---|---|---|---|---|
| 1778018299 | 29.44° C | 80% | 1004.9 hPa | 0 mm | - | 210 W/m² | - |
| 1778017997 | 28.89° C | 81% | 1005 hPa | 0 mm | - | 261 W/m² | - |
| 1778017694 | 28.89° C | 81% | 1005.1 hPa | 0 mm | - | 306 W/m² | - |
| 1778017392 | 29.44° C | 80% | 1005.1 hPa | 0 mm | - | 399 W/m² | - |
| 1778017088 | 30° C | 79% | 1004.8 hPa | 0 mm | - | 328 W/m² | - |
| 1778016787 | 28.89° C | 81% | 1005.3 hPa | 0 mm | - | 489 W/m² | - |
| 1778016482 | 28.89° C | 81% | 1005.3 hPa | 0 mm | - | 251 W/m² | - |
| 1778016179 | 29.44° C | 80% | 1005.3 hPa | 0 mm | - | 254 W/m² | - |
| 1778015875 | 28.89° C | 82% | 1005 hPa | 0 mm | - | 511 W/m² | - |
| 1778015574 | 28.89° C | 82% | 1005.3 hPa | 0 mm | - | 239 W/m² | - |
| 1778015269 | 28.89° C | 81% | 1005.5 hPa | 0 mm | - | 378 W/m² | - |
| 1778014967 | 28.89° C | 81% | 1005.9 hPa | 0 mm | - | 450 W/m² | - |
| 1778014664 | 28.89° C | 81% | 1005.8 hPa | 0 mm | - | 561 W/m² | - |
| 1778014362 | 29.44° C | 81% | 1005.9 hPa | 0 mm | - | 262 W/m² | - |
| 1778014058 | 29.44° C | 80% | 1006 hPa | 0 mm | - | 297 W/m² | - |
| 1778013756 | 28.89° C | 80% | 1005.9 hPa | 0 mm | - | 608 W/m² | - |
| 1778013453 | 28.89° C | 80% | 1006.1 hPa | 0 mm | - | 314 W/m² | - |
| 1778013150 | 28.33° C | 81% | 1006.2 hPa | 0 mm | - | 449 W/m² | - |
| 1778012846 | 28.89° C | 81% | 1006.1 hPa | 0 mm | - | 323 W/m² | - |
| 1778012542 | 29.44° C | 82% | 1006.2 hPa | 0 mm | - | 680 W/m² | - |
| 1778012239 | 28.89° C | 81% | 1006.4 hPa | 0 mm | - | 247 W/m² | - |
| 1778011937 | 28.33° C | 82% | 1006.2 hPa | 0 mm | - | 388 W/m² | - |
| 1778011634 | 28.33° C | 81% | 1006.4 hPa | 0 mm | - | 265 W/m² | - |
| 1778011331 | 28.33° C | 81% | 1006.5 hPa | 0 mm | - | 494 W/m² | - |
| 1778011027 | 28.33° C | 82% | 1006.6 hPa | 0 mm | - | 237 W/m² | - |
* Rain latest hour (hover to see other rain measurements)
** Current wind speed in m/s (hover to see current wind gust speed)